GFSFLT2_sfc_thetae_057.txt.gz
Theta_e
341 342 343 344 344 343 342 341 339 336 334 333 332 329 328 325 325 325 327 328 329 328 327 328 327 326 322
343 336 338 340 341 341 340 336 334 334 333 331 329 330 327 325 323 323 325 327 326 325 325 326 327 327 328
341 338 334 335 336 335 334 330 328 331 329 329 326 328 326 324 322 323 324 323 322 322 323 323 325 325 325
340 342 341 342 342 341 338 335 335 333 333 327 323 324 325 323 322 321 321 321 321 320 320 322 323 322 322
340 341 342 342 342 341 340 338 337 335 331 328 323 320 319 317 316 315 317 318 319 319 318 318 320 320 318
342 340 340 340 342 341 341 340 339 336 332 331 325 321 320 319 317 319 318 317 316 315 315 315 316 318 318
338 336 339 341 341 340 342 341 340 336 335 330 325 319 317 317 317 317 316 314 312 311 311 311 312 314 314
335 336 334 337 339 342 342 342 340 337 333 329 323 319 315 315 316 316 315 313 309 307 306 306 307 309 310
333 335 336 337 335 336 339 340 340 338 334 330 324 321 318 317 312 312 310 308 305 303 301 300 301 302 303
332 333 333 335 336 336 336 338 340 339 334 327 324 319 316 313 312 305 302 302 300 301 299 298 297 297 298
329 330 331 333 333 334 334 335 337 338 333 328 324 319 315 315 308 303 300 300 298 298 297 297 296 296 295
325 325 326 327 331 332 332 332 334 335 333 328 324 317 314 312 307 302 300 300 298 296 294 294 294 295 295
319 318 318 318 322 326 329 331 332 332 331 326 321 316 314 311 307 302 299 297 296 295 292 292 292 292 292
318 319 318 318 320 320 321 322 327 325 325 322 319 315 313 311 306 300 298 294 295 294 294 292 287 288 290
317 318 317 317 317 315 315 316 317 318 318 317 317 314 311 309 304 300 296 296 293 294 296 297 291 290 288
317 316 315 313 310 312 314 314 310 312 312 313 313 311 310 308 303 300 299 300 296 293 297 298 298 296 289

GFSFLT2_sfc_thetae_060.txt.gz
Theta_e
341 342 343 344 344 342 341 339 336 335 334 334 332 328 328 328 329 329 330 330 329 330 331 331 329 327 318
339 335 337 340 340 340 338 334 332 332 332 331 329 328 326 326 327 329 328 327 328 327 329 328 327 326 324
338 335 333 335 335 334 332 328 326 325 324 325 326 327 326 325 326 327 326 325 323 324 325 326 324 323 324
338 337 338 338 337 336 333 328 328 325 325 323 321 324 325 324 325 325 324 324 319 315 315 321 319 318 317
336 338 338 338 337 336 334 330 332 326 321 320 317 316 315 316 314 316 316 314 314 313 312 314 314 313 313
337 338 336 337 336 336 335 333 334 327 323 318 316 313 312 314 310 311 312 311 310 310 310 311 312 313 312
335 335 334 336 335 335 335 334 335 328 325 321 318 314 315 315 315 312 310 308 307 307 307 308 308 310 310
336 333 331 333 335 335 335 336 334 332 328 325 319 316 314 313 315 313 311 306 303 304 303 304 304 305 306
332 332 331 330 331 332 334 335 334 333 329 325 319 316 313 313 313 312 308 305 302 300 297 298 298 299 300
327 328 330 330 330 329 329 333 334 334 330 324 320 316 314 312 309 306 304 300 299 295 293 292 292 293 293
328 327 327 327 327 328 328 331 332 333 331 325 321 317 313 310 306 302 300 299 298 295 293 291 290 290 290
327 324 323 323 325 327 327 328 331 331 331 327 322 315 312 309 305 302 299 298 297 295 293 291 289 289 289
321 319 317 318 319 322 328 327 329 331 330 327 322 315 312 308 304 301 299 295 295 294 291 290 288 288 287
320 318 315 313 313 316 318 319 323 327 328 326 320 315 312 308 305 301 298 295 293 293 290 289 284 284 285
316 313 311 310 310 310 311 316 317 319 321 323 320 316 313 311 305 301 298 297 292 292 292 293 286 284 283
311 311 310 309 307 307 308 310 314 315 316 317 318 316 314 311 307 301 299 298 294 292 293 295 295 288 283

GFSFLT2_sfc_thetae_063.txt.gz
Theta_e
341 341 343 343 342 340 338 337 336 336 336 333 332 330 331 331 331 331 331 331 332 332 332 330 328 325 317
339 335 337 339 339 339 336 333 331 331 332 330 328 330 329 330 330 330 329 329 330 330 329 328 326 326 321
337 334 333 334 334 333 330 327 324 323 323 322 325 328 329 329 329 328 327 326 324 326 326 324 322 319 319
339 334 335 336 335 331 328 325 323 322 322 322 320 324 327 327 327 326 325 322 317 313 315 319 317 314 313
335 336 336 335 334 331 327 325 324 322 320 319 317 315 315 316 317 318 314 312 312 311 312 312 313 310 309
337 336 337 335 334 332 330 327 326 320 318 315 315 313 311 310 308 310 309 309 309 309 310 311 310 309 311
336 336 336 335 335 334 333 330 328 323 319 315 313 312 310 310 310 309 307 307 306 306 307 308 307 309 309
336 336 334 334 336 334 333 331 333 326 321 316 315 312 311 313 314 312 308 305 306 304 303 304 304 307 306
331 334 334 331 333 333 333 332 333 328 327 319 316 314 314 314 312 311 307 304 301 301 298 299 299 301 305
329 333 333 330 328 333 334 334 333 332 328 321 316 314 313 312 310 309 304 301 298 295 295 294 293 294 295
328 328 328 328 328 328 328 332 332 332 329 324 318 313 313 311 309 306 302 300 296 294 293 292 290 289 290
329 323 322 323 324 325 327 327 331 332 329 326 320 313 312 310 305 304 301 299 296 294 292 289 290 289 288
326 325 320 322 319 320 322 323 328 330 328 326 321 314 312 308 304 303 300 297 294 293 290 287 289 289 286
326 326 325 317 314 318 319 320 322 327 328 326 321 315 312 309 305 301 300 296 294 293 290 288 285 286 285
322 315 310 311 309 311 312 318 317 319 326 326 322 317 313 310 305 301 299 298 293 293 292 292 286 285 282
316 316 314 316 313 315 314 312 313 314 316 323 321 317 314 311 307 303 300 300 297 292 292 293 295 289 285

GFSFLT2_sfc_thetae_069.txt.gz
Theta_e
339 340 341 340 339 339 339 339 338 337 335 334 333 332 332 333 332 335 334 334 334 332 330 329 327 326 323
337 333 335 336 336 336 336 334 332 332 332 332 330 332 331 332 332 333 332 332 331 330 328 326 325 324 319
335 332 331 332 332 331 329 327 324 323 322 322 325 331 331 332 331 332 331 329 327 325 324 322 320 318 319
337 332 332 331 329 326 324 322 321 319 318 320 322 326 329 329 330 328 327 323 317 313 314 317 314 316 319
334 334 333 330 326 324 322 320 319 318 317 316 318 319 319 320 317 316 314 312 312 311 310 311 313 314 317
332 334 335 333 327 323 321 320 318 316 314 314 314 315 315 313 311 309 309 309 310 310 310 309 311 315 314
331 333 333 332 331 325 321 321 319 316 314 313 312 313 312 311 309 307 307 307 308 309 308 308 308 312 312
332 332 332 332 332 328 323 322 320 318 315 313 311 311 312 311 308 307 306 305 306 307 305 306 306 307 310
331 331 332 332 332 330 327 324 321 319 316 314 313 313 313 311 311 309 308 305 303 306 305 304 304 303 303
330 331 331 332 333 332 331 327 325 323 321 317 315 314 312 311 311 308 306 304 303 301 301 302 302 302 302
329 330 330 328 330 331 333 331 326 326 323 319 316 315 312 311 311 307 304 303 301 298 298 297 296 298 299
329 328 326 326 327 329 330 331 330 328 325 320 318 315 313 311 310 307 304 300 299 297 295 293 292 292 293
328 326 325 326 325 325 327 328 331 330 326 322 321 317 314 311 310 307 302 299 294 293 291 290 288 289 289
328 329 329 328 326 324 321 323 328 330 330 326 323 317 314 312 310 306 301 296 294 294 293 290 288 287 287
327 322 313 312 310 312 313 318 320 327 329 328 325 319 315 314 310 306 303 302 295 293 293 294 286 289 283
325 321 320 322 321 321 322 315 316 319 324 327 326 322 318 315 313 307 306 305 303 294 294 293 293 291 288

GFSFLT2_sfc_thetae_072.txt.gz
Theta_e
339 339 339 340 340 340 341 340 338 337 335 334 334 333 333 332 334 336 336 336 334 333 332 330 328 327 321
336 333 334 336 337 337 337 334 332 332 333 332 330 333 333 332 333 333 334 333 332 330 329 327 326 323 316
334 330 330 331 332 331 330 327 324 323 323 323 326 331 334 331 331 332 332 330 327 326 326 325 322 317 317
335 331 330 329 327 326 324 323 321 319 319 321 322 327 330 330 331 331 328 323 317 313 315 319 316 316 316
335 333 329 327 324 322 321 320 318 316 316 318 319 319 319 318 317 319 314 313 312 311 311 313 314 315 315
334 333 334 330 323 321 320 319 316 314 314 314 315 315 315 313 310 309 309 310 310 310 311 311 313 316 316
332 333 333 332 327 322 319 319 317 314 313 313 313 313 313 311 309 307 307 308 308 308 309 310 311 314 316
332 332 331 332 331 324 320 319 317 316 313 312 311 312 311 310 309 308 307 307 307 307 306 308 308 310 312
331 331 331 331 331 329 323 319 318 317 314 312 311 313 312 313 311 310 308 307 306 307 306 307 306 306 308
329 330 331 331 330 330 328 322 321 321 319 316 314 314 314 312 311 309 307 305 305 305 305 304 304 304 305
328 328 329 329 330 330 329 326 324 322 321 318 316 315 313 311 310 308 305 305 303 301 301 300 300 301 302
328 326 326 324 329 329 330 329 325 324 323 320 318 315 313 311 310 308 305 301 302 300 297 295 294 294 296
327 327 327 326 327 326 326 328 329 325 325 321 320 316 313 311 310 309 304 300 296 295 294 294 292 291 291
327 327 325 327 327 326 325 326 329 329 328 323 321 317 315 313 310 308 304 299 297 296 296 291 294 294 291
327 320 315 316 315 317 317 322 325 329 329 326 324 321 316 315 312 309 307 305 299 294 295 298 289 291 287
322 321 321 324 323 323 322 317 317 321 327 328 326 323 319 317 316 311 309 307 306 297 295 295 295 294 292

GFSFLT2_sfc_thetae_075.txt.gz
Theta_e
338 338 340 341 341 343 342 340 338 337 336 335 336 335 333 335 338 338 337 336 336 335 332 330 328 326 327
340 332 334 336 338 338 337 334 332 333 333 332 331 334 333 334 333 336 334 334 333 332 330 327 325 324 326
339 333 330 331 332 332 331 327 327 331 330 329 327 332 333 332 333 334 332 330 329 328 327 324 322 324 326
337 335 335 333 334 333 331 329 328 327 327 327 325 327 330 329 332 331 328 323 321 324 326 322 323 324 324
336 335 334 332 331 330 329 327 324 323 325 327 328 328 329 322 328 325 321 321 320 321 323 323 323 323 324
336 334 334 331 329 327 327 325 323 321 323 324 325 325 325 323 321 320 320 319 318 318 321 322 322 323 324
334 333 334 332 329 327 325 324 322 320 320 322 323 323 323 320 318 317 317 318 317 317 318 320 321 322 323
333 333 333 333 332 327 325 324 322 321 319 320 320 321 320 320 316 316 316 316 316 316 316 317 319 320 321
331 332 332 333 332 330 326 324 322 321 319 319 318 319 318 318 316 314 312 312 312 311 312 312 314 315 317
331 331 331 331 332 332 328 325 323 322 319 317 316 317 317 316 315 313 311 309 309 308 309 308 308 309 312
331 331 331 331 330 331 330 326 324 323 321 318 317 317 316 314 313 312 311 309 308 310 309 306 308 305 306
330 330 329 329 329 330 330 329 326 325 322 322 319 317 315 313 313 311 309 308 308 309 305 301 304 304 301
328 327 326 325 327 328 328 329 327 326 323 321 320 319 315 313 313 313 311 304 304 302 298 302 302 302 301
329 329 329 329 329 329 327 327 329 328 325 322 321 319 317 317 312 310 307 303 305 300 302 298 301 304 300
328 327 320 322 321 322 323 326 327 329 329 326 323 323 319 317 316 312 310 309 305 298 301 303 294 295 297
326 325 325 325 324 326 326 326 326 326 329 328 326 323 320 318 317 315 312 311 309 302 298 301 301 299 298